Weather in Yaya

Russia / Kemerovo Oblast     56°12′20″N   86°27′04″E
temp.,
°C
wind,
m/s
gust,
m/s
humid.,
%
clouds,
%
prec.,
mm/h
press.,
hPa
HPBL,
m
20 january, thu
thu2001:00−17ssw369844 0.0 102785
04:00−19ssw359926 0.0 102864
07:00−19sw35998 0.0 102965
10:00−17sw3797100 0.0 1030124
13:00−12sw479295 0.0 1030221
16:00−11sw369377 0.0 1031190
19:00−14ssw389590 0.0 1033162
22:00−16sw379661 0.0 1034108
21 january, fri
fri2101:00−19ssw349816 0.0 103557
04:00−21sw2210028 0.0 103615
07:00−22ssw2210085 0.0 103612
10:00−22sse1110082 0.0 103610
13:00−14ene119345 0.0 103486
16:00−13ne22965 0.0 103336
19:00−19ene2210056 0.0 103420
22:00−19ene2410083 0.0 103345
22 january, sat
sat2201:00−20ene259933 0.0 103349
04:00−19ene359850 0.0 103361
07:00−20ene359941 0.0 103358
10:00−20ene249999 0.0 103445
13:00−12e249056 0.0 1034125
16:00−12ne22947 0.0 103413
19:00−18e229951 0.0 10369
22:00−20ese1110067 0.0 10379
23 january, sun
sun2301:00−21s1110069 0.0 10379
04:00−23ssw1110064 0.0 10389
07:00−24se1110051 0.0 10389
10:00−24e0010013 0.0 10399
13:00−14ne11905 0.0 103867
16:00−13nne11945 0.0 103811
19:00−19e111008 0.0 10399
22:00−21e1110020 0.0 10399
24 january, mon
mon2401:00−22e1110051 0.0 10399
04:00−23ene1110062 0.0 10399
07:00−23e1110062 0.0 10399
10:00−23ene2210064 0.0 103911
13:00−13ne239231 0.0 1037122
16:00−13nne23957 0.0 103650
19:00−20ne2210067 0.0 103712
22:00−21ne2210084 0.0 103614